Powrót do katalogu

FENGYUN 1C DEB

LostSSO
NORAD 38493·DEBRIS·🇨🇳 China

Wystrzelony May 10, 1999 z Taiyuan Satellite Launch Center

Loading…

Następne Przeloty (najbliższe 24 godziny)

TLE

NieaktualneSource: Space-Track

Epoka: Aug 3, 2026, 13:32 UTC

1 38493U 99025ESC 26215.56420126  .00000484  00000-0  36536-3 0  9996
2 38493  99.1055 165.0942 0426920 358.6682   1.3294 13.62561946596828

Śledź FENGYUN 1C DEB w czasie rzeczywistym z AllMySat

Download on the App Store